Flag for U.S.A. Weather past 2 weeks in Arden-Arcade, California, U.S.A.

Now
66 °F

Passing clouds.


Feels Like: 66 °F
Forecast: 42 / 65 °F
Wind: No wind

Location: Mather Field

Current Time: Jan 29, 2015 at 5:28:26 PM

Latest Report: Jan 29, 2015 at 4:50 PM


Visibility: 10 mi

Pressure: 30.06 "Hg

Humidity: 52%

Dew point: 48 °F

Location of Arden-ArcadeLocation

Historic Weather in Arden-Arcade — Graph

°F

Arden-Arcade temperature yesterday

Maximum temperature yesterday: 63 °F (at 1:50 PM)
Minimum temperature yesterday: 45 °F (at 4:46 AM)
Average temperature yesterday: 50 °F

Past Weeks' High & Low Weather Summary

 TemperatureHumidityPressure
High66 °F (Jan 29, 2:45 PM)100% (Jan 14, 5:45 PM)30.40 "Hg (Jan 14, 5:45 PM)
Low37 °F (Jan 15, 3:00 AM)48% (Jan 25, 4:46 PM)29.97 "Hg (Jan 26, 2:46 PM)
Average49 °F98%30.22 "Hg
* Reported Jan 14 4:45 PM — Jan 29 3:50 PM, Arden-Arcade, Weather by CustomWeather, © 2014

Note: Actual official high and low records may vary slightly from our data, if they occured in-between our weather recording intervals... More about our weather records

Advertising

Arden-Arcade weather history for previous 24 hours

 ConditionsComfort  
Time TempWeatherWind HumidityBarometerVisibility
3:50 PM
Jan 29
66 °FSunny.5 mph49%30.06 "Hg10 mi
2:45 PM66 °FPassing clouds.No wind49%30.07 "Hg10 mi
1:45 PM64 °FPassing clouds.3 mph56%30.09 "Hg10 mi
12:50 PM63 °FPassing clouds.3 mph64%30.10 "Hg10 mi
11:45 AM59 °FPassing clouds.5 mph82%30.14 "Hg9 mi
10:48 AM57 °FScattered clouds.3 mph100%30.16 "Hg10 mi
9:45 AM52 °FScattered clouds.No wind100%30.17 "Hg10 mi
8:45 AM46 °FScattered clouds.No wind100%30.17 "Hg10 mi
7:55 AM39 °FScattered clouds.No wind100%30.17 "Hg10 mi
6:48 AM41 °FClear.No wind100%30.16 "Hg10 mi
5:50 AM41 °FClear.No wind100%30.14 "Hg10 mi
4:55 AM43 °FClear.No wind100%30.14 "Hg10 mi
3:45 AM43 °FClear.No wind100%30.16 "Hg10 mi
11:30 PM
Jan 28
46 °FClear.No wind100%30.18 "Hg10 mi
10:50 PM46 °FClear.6 mph100%30.17 "Hg10 mi
8:47 PM48 °FClear.7 mph100%30.17 "Hg10 mi
7:45 PM48 °FClear.5 mph100%30.17 "Hg10 mi
6:55 PM48 °FPassing clouds.5 mph100%30.17 "Hg10 mi
5:45 PM55 °FPassing clouds.5 mph100%30.16 "Hg10 mi
Weather by CustomWeather, © 2014

See weather overviewHow to use our weather pages